Flag for Canada Weather past 2 weeks in Gatineau, Quebec, Canada

Now
55 °F

Passing clouds.


Feels Like: 53 °F
Forecast: 49 / 69 °F
Wind: 8 mph from East

Location: Ottawa Int'L. Ont.

Current Time: Oct 2, 2014 at 10:40:47 AM

Latest Report: Oct 2, 2014 at 10:00 AM


Visibility: 15 mi

Pressure: 30.19 "Hg

Humidity: 88%

Dew point: 52 °F

Location of GatineauLocation

Historic Weather in Gatineau — Graph

°F

Gatineau temperature yesterday

Maximum temperature yesterday: 66 °F (at 2:00 PM)
Minimum temperature yesterday: 52 °F (at 12:00 AM)
Average temperature yesterday: 57 °F

Past Weeks' High & Low Weather Summary

 TemperatureHumidityPressure
High81 °F (Sep 27, 4:00 PM)100% (Sep 17, 10:00 PM)30.57 "Hg (Sep 17, 10:00 PM)
Low34 °F (Sep 19, 5:00 AM)37% (Sep 28, 3:00 PM)29.46 "Hg (Sep 21, 5:00 PM)
Average57 °F81%30.11 "Hg
* Reported Sep 17 9:00 AM — Oct 2 9:00 AM, Gatineau, Weather by CustomWeather, © 2014

Note: Actual official high and low records may vary slightly from our data, if they occured in-between our weather recording intervals... More about our weather records

Advertising

Gatineau weather history for previous 24 hours

 ConditionsComfort  
Time TempWeatherWind HumidityBarometerVisibility
9:00 AM
Oct 2
52 °FPassing clouds.8 mph94%30.19 "Hg15 mi
8:00 AM50 °FPassing clouds.8 mph94%30.19 "Hg15 mi
7:00 AM48 °FPassing clouds.7 mph94%30.18 "Hg15 mi
6:00 AM48 °FPassing clouds.5 mph100%30.17 "Hg15 mi
5:00 AM48 °FPassing clouds.5 mph94%30.16 "Hg15 mi
4:00 AM48 °FPassing clouds.7 mph100%30.15 "Hg15 mi
3:00 AM50 °FClear.10 mph94%30.15 "Hg15 mi
2:00 AM50 °FClear.9 mph100%30.15 "Hg15 mi
1:00 AM52 °FClear.8 mph94%30.14 "Hg15 mi
12:00 AM52 °FClear.9 mph94%30.15 "Hg8 mi
11:00 PM
Oct 1
52 °FClear.7 mph100%30.16 "Hg8 mi
10:00 PM54 °FClear.7 mph94%30.16 "Hg15 mi
9:00 PM55 °FClear.8 mph88%30.15 "Hg15 mi
8:00 PM59 °FClear.7 mph82%30.14 "Hg15 mi
7:00 PM59 °FPassing clouds.7 mph82%30.13 "Hg15 mi
6:00 PM64 °FPassing clouds.9 mph68%30.12 "Hg15 mi
5:00 PM66 °FPassing clouds.8 mph64%30.11 "Hg15 mi
4:00 PM66 °FScattered clouds.8 mph68%30.11 "Hg15 mi
3:00 PM66 °FPassing clouds.10 mph64%30.11 "Hg15 mi
2:00 PM66 °FScattered clouds.8 mph64%30.12 "Hg15 mi
1:00 PM64 °FScattered clouds.3 mph68%30.14 "Hg15 mi
12:00 PM61 °FPartly sunny.8 mph72%30.16 "Hg15 mi
11:00 AM57 °FOvercast.8 mph82%30.17 "Hg15 mi
10:00 AM55 °FOvercast.8 mph88%30.18 "Hg15 mi
Weather by CustomWeather, © 2014

See weather overviewHow to use our weather pages